Location: Unspecified
(0.0000°N, 0.0000°E)
Time: 17:40:39
(UTC+00:00)

AO-73 - Pass Details

Date: 30 September 2021
Orbit: 580 x 662 km, 97.6° (Epoch: 22 October)

Event Time Altitude Azimuth Distance (km) Brightness Sun altitude
Rises 05:13:43 0° 336° (NNW) 2,782 ? -9.1°
Reaches altitude 10° 05:17:04 10° 306° (NW) 1,887 ? -8.2°
Maximum altitude 05:18:43 12° 282° (WNW) 1,748 ? -7.8°
Drops below altitude 10° 05:20:23 10° 257° (WSW) 1,894 ? -7.4°
Sets 05:23:48 0° 227° (SW) 2,806 ? -6.5°
